Time,TemperatureF,DewpointF,PressureIn,WindDirection,WindDirectionDegrees,WindSpeedMPH,WindSpeedGustMPH,Humidity,HourlyPrecipIn,Conditions,Clouds,dailyrainin,SoftwareType,DateUTC
2013-05-02 00:01:00,45.1,41.2,30.41,East,90,1.0,1.0,86,0.00,,CLR,0.00,VWS V12.08,2013-05-02 04:01:00,
2013-05-02 00:11:00,44.8,40.9,30.41,East,90,1.0,1.0,86,0.00,,CLR,0.00,VWS V12.08,2013-05-02 04:11:00,
2013-05-02 00:21:00,44.5,40.6,30.41,East,90,1.0,1.0,86,0.00,,CLR,0.00,VWS V12.08,2013-05-02 04:21:00,
2013-05-02 00:31:00,43.9,40.6,30.40,East,90,1.0,1.0,88,0.00,,CLR,0.00,VWS V12.08,2013-05-02 04:31:00,
2013-05-02 00:41:00,43.6,40.3,30.40,East,90,1.0,1.0,88,0.00,,CLR,0.00,VWS V12.08,2013-05-02 04:41:00,
2013-05-02 00:51:00,43.2,40.2,30.40,East,90,1.0,1.0,89,0.00,,CLR,0.00,VWS V12.08,2013-05-02 04:51:00,
2013-05-02 01:01:00,42.8,39.8,30.40,East,90,1.0,1.0,89,0.00,,CLR,0.00,VWS V12.08,2013-05-02 05:01:00,
2013-05-02 01:11:00,42.5,39.8,30.40,East,90,1.0,1.0,90,0.00,,CLR,0.00,VWS V12.08,2013-05-02 05:11:00,
2013-05-02 01:21:00,42.3,39.9,30.40,East,90,1.0,1.0,91,0.00,,CLR,0.00,VWS V12.08,2013-05-02 05:21:00,
2013-05-02 01:31:00,42.2,40.0,30.39,East,90,1.0,1.0,92,0.00,,CLR,0.00,VWS V12.08,2013-05-02 05:31:00,
2013-05-02 01:41:00,42.3,40.4,30.39,East,90,1.0,1.0,93,0.00,,CLR,0.00,VWS V12.08,2013-05-02 05:41:00,
2013-05-02 01:51:00,42.3,40.4,30.39,East,90,1.0,1.0,93,0.00,,CLR,0.00,VWS V12.08,2013-05-02 05:51:00,
2013-05-02 02:01:00,42.2,40.6,30.38,East,90,1.0,1.0,94,0.00,,CLR,0.00,VWS V12.08,2013-05-02 06:01:00,
2013-05-02 02:11:00,42.2,40.6,30.38,East,90,1.0,1.0,94,0.00,,CLR,0.00,VWS V12.08,2013-05-02 06:11:00,
2013-05-02 02:21:00,42.1,40.8,30.38,East,90,1.0,1.0,95,0.00,,CLR,0.00,VWS V12.08,2013-05-02 06:21:00,
2013-05-02 02:31:00,41.9,40.6,30.37,East,90,1.0,1.0,95,0.00,,CLR,0.00,VWS V12.08,2013-05-02 06:31:00,
2013-05-02 02:41:00,41.8,40.5,30.37,East,90,1.0,1.0,95,0.00,,CLR,0.00,VWS V12.08,2013-05-02 06:41:00,
2013-05-02 02:51:00,41.6,40.5,30.36,East,90,1.0,1.0,96,0.00,,CLR,0.00,VWS V12.08,2013-05-02 06:51:00,
2013-05-02 03:01:00,41.6,40.5,30.36,East,90,1.0,1.0,96,0.00,,CLR,0.00,VWS V12.08,2013-05-02 07:01:00,
2013-05-02 03:11:00,41.3,40.2,30.36,East,90,1.0,1.0,96,0.00,,CLR,0.00,VWS V12.08,2013-05-02 07:11:00,
2013-05-02 03:21:00,41.1,40.0,30.36,East,90,1.0,1.0,96,0.00,,CLR,0.00,VWS V12.08,2013-05-02 07:21:00,
2013-05-02 03:31:00,40.8,39.8,30.36,East,90,1.0,1.0,96,0.00,,CLR,0.00,VWS V12.08,2013-05-02 07:31:00,
2013-05-02 03:41:00,40.3,39.2,30.36,East,90,1.0,1.0,96,0.00,,CLR,0.00,VWS V12.08,2013-05-02 07:41:00,
2013-05-02 03:51:00,40.1,39.0,30.37,East,90,1.0,1.0,96,0.00,,CLR,0.00,VWS V12.08,2013-05-02 07:51:00,
2013-05-02 04:01:00,40.2,39.4,30.37,East,90,1.0,1.0,97,0.00,,CLR,0.00,VWS V12.08,2013-05-02 08:01:00,
2013-05-02 04:11:00,40.2,39.4,30.37,East,90,1.0,1.0,97,0.00,,CLR,0.00,VWS V12.08,2013-05-02 08:11:00,
2013-05-02 04:21:00,39.9,39.1,30.36,East,90,1.0,1.0,97,0.00,,CLR,0.00,VWS V12.08,2013-05-02 08:21:00,
2013-05-02 04:31:00,39.5,38.7,30.36,East,90,1.0,1.0,97,0.00,,CLR,0.00,VWS V12.08,2013-05-02 08:31:00,
2013-05-02 04:41:00,39.3,38.5,30.36,East,90,1.0,1.0,97,0.00,,CLR,0.00,VWS V12.08,2013-05-02 08:41:00,
2013-05-02 04:51:00,39.5,39.0,30.37,East,90,1.0,1.0,98,0.00,,CLR,0.00,VWS V12.08,2013-05-02 08:51:00,
2013-05-02 05:01:00,39.5,39.0,30.38,East,90,1.0,1.0,98,0.00,,CLR,0.00,VWS V12.08,2013-05-02 09:01:00,
2013-05-02 05:11:00,39.2,38.7,30.38,East,90,1.0,1.0,98,0.00,,CLR,0.00,VWS V12.08,2013-05-02 09:11:00,
2013-05-02 05:21:00,39.1,38.6,30.38,East,90,1.0,1.0,98,0.00,,CLR,0.00,VWS V12.08,2013-05-02 09:21:00,
2013-05-02 05:31:00,39.2,38.7,30.38,East,90,1.0,1.0,98,0.00,,CLR,0.00,VWS V12.08,2013-05-02 09:31:00,
2013-05-02 05:41:00,39.3,38.8,30.38,East,90,1.0,1.0,98,0.00,,CLR,0.00,VWS V12.08,2013-05-02 09:41:00,
2013-05-02 05:51:00,39.3,39.0,30.38,East,90,1.0,1.0,99,0.00,,CLR,0.00,VWS V12.08,2013-05-02 09:51:00,
2013-05-02 06:01:00,39.2,38.9,30.39,East,90,1.0,1.0,99,0.00,,CLR,0.00,VWS V12.08,2013-05-02 10:01:00,
2013-05-02 06:11:00,39.1,38.8,30.39,East,90,1.0,1.0,99,0.00,,CLR,0.00,VWS V12.08,2013-05-02 10:11:00,
2013-05-02 06:21:00,38.8,38.5,30.39,East,90,1.0,1.0,99,0.00,,CLR,0.00,VWS V12.08,2013-05-02 10:21:00,
2013-05-02 06:31:00,38.5,38.2,30.39,East,90,1.0,1.0,99,0.00,,CLR,0.00,VWS V12.08,2013-05-02 10:31:00,
2013-05-02 06:41:00,38.6,38.3,30.39,East,90,1.0,1.0,99,0.00,,CLR,0.00,VWS V12.08,2013-05-02 10:41:00,
2013-05-02 06:51:00,39.2,38.9,30.40,East,90,1.0,1.0,99,0.00,,CLR,0.00,VWS V12.08,2013-05-02 10:51:00,
2013-05-02 07:01:00,39.6,39.3,30.40,East,90,1.0,1.0,99,0.00,,CLR,0.00,VWS V12.08,2013-05-02 11:01:00,
2013-05-02 07:11:00,40.9,40.9,30.40,ESE,115,0.0,1.0,100,0.00,,CLR,0.00,VWS V12.08,2013-05-02 11:11:00,
2013-05-02 07:21:00,42.5,42.5,30.40,ESE,115,0.0,0.0,100,0.00,,CLR,0.00,VWS V12.08,2013-05-02 11:21:00,
2013-05-02 07:31:00,43.3,43.3,30.40,ESE,115,0.0,0.0,100,0.00,,CLR,0.00,VWS V12.08,2013-05-02 11:31:00,
2013-05-02 07:41:00,45.2,45.2,30.40,ESE,115,0.0,0.0,100,0.00,,CLR,0.00,VWS V12.08,2013-05-02 11:41:00,
2013-05-02 07:51:00,47.6,47.6,30.40,ESE,115,0.0,0.0,100,0.00,,CLR,0.00,VWS V12.08,2013-05-02 11:51:00,
2013-05-02 08:01:00,49.5,47.8,30.41,ESE,115,0.0,0.0,94,0.00,,CLR,0.00,VWS V12.08,2013-05-02 12:01:00,
2013-05-02 08:11:00,51.0,46.0,30.41,ESE,115,0.0,1.0,83,0.00,,CLR,0.00,VWS V12.08,2013-05-02 12:11:00,
2013-05-02 08:21:00,51.9,45.6,30.41,ESE,115,0.0,2.0,79,0.00,,CLR,0.00,VWS V12.08,2013-05-02 12:21:00,
2013-05-02 08:31:00,52.6,45.6,30.41,ENE,60,0.0,3.0,77,0.00,,CLR,0.00,VWS V12.08,2013-05-02 12:31:00,
2013-05-02 08:41:00,53.5,45.8,30.41,ENE,71,1.0,3.0,75,0.00,,CLR,0.00,VWS V12.08,2013-05-02 12:41:00,
2013-05-02 08:51:00,54.4,45.9,30.41,ENE,70,0.0,4.0,73,0.00,,CLR,0.00,VWS V12.08,2013-05-02 12:51:00,
2013-05-02 09:01:00,55.9,46.3,30.41,NE,53,0.0,3.0,70,0.00,,CLR,0.00,VWS V12.08,2013-05-02 13:01:00,
2013-05-02 09:11:00,56.7,46.3,30.41,NNE,24,0.0,6.0,68,0.00,,CLR,0.00,VWS V12.08,2013-05-02 13:11:00,
2013-05-02 09:21:00,57.2,46.0,30.41,ENE,71,2.0,4.0,66,0.00,,CLR,0.00,VWS V12.08,2013-05-02 13:21:00,
2013-05-02 09:31:00,58.0,45.9,30.41,NE,38,2.0,3.0,64,0.00,,CLR,0.00,VWS V12.08,2013-05-02 13:31:00,
2013-05-02 09:41:00,58.9,46.8,30.41,NNE,16,0.0,3.0,64,0.00,,CLR,0.00,VWS V12.08,2013-05-02 13:41:00,
2013-05-02 09:51:00,59.8,46.8,30.41,East,80,0.0,3.0,62,0.00,,CLR,0.00,VWS V12.08,2013-05-02 13:51:00,
2013-05-02 10:01:00,60.2,45.4,30.41,North,360,0.0,5.0,58,0.00,,CLR,0.00,VWS V12.08,2013-05-02 14:01:00,
2013-05-02 10:11:00,60.7,45.4,30.41,East,90,0.0,5.0,57,0.00,,CLR,0.00,VWS V12.08,2013-05-02 14:11:00,
2013-05-02 10:21:00,61.5,46.6,30.41,East,84,4.0,7.0,58,0.00,,CLR,0.00,VWS V12.08,2013-05-02 14:21:00,
2013-05-02 10:31:00,61.8,47.8,30.41,NE,50,0.0,5.0,60,0.00,,CLR,0.00,VWS V12.08,2013-05-02 14:31:00,
2013-05-02 10:41:00,62.6,46.7,30.41,ENE,74,4.0,4.0,56,0.00,,CLR,0.00,VWS V12.08,2013-05-02 14:41:00,
2013-05-02 10:51:00,62.4,45.1,30.41,ENE,66,3.0,7.0,53,0.00,,CLR,0.00,VWS V12.08,2013-05-02 14:51:00,
2013-05-02 11:01:00,62.9,45.0,30.41,East,86,0.0,5.0,52,0.00,,CLR,0.00,VWS V12.08,2013-05-02 15:01:00,
2013-05-02 11:11:00,64.2,44.7,30.41,NNE,24,2.0,6.0,49,0.00,,CLR,0.00,VWS V12.08,2013-05-02 15:11:00,
2013-05-02 11:21:00,65.2,45.6,30.41,NE,54,2.0,3.0,49,0.00,,CLR,0.00,VWS V12.08,2013-05-02 15:21:00,
2013-05-02 11:31:00,66.0,45.8,30.40,ENE,67,3.0,5.0,48,0.00,,CLR,0.00,VWS V12.08,2013-05-02 15:31:00,
2013-05-02 11:41:00,67.1,45.1,30.40,NNE,20,3.0,4.0,45,0.00,,CLR,0.00,VWS V12.08,2013-05-02 15:41:00,
2013-05-02 11:51:00,67.4,42.9,30.40,ESE,110,0.0,8.0,41,0.00,,CLR,0.00,VWS V12.08,2013-05-02 15:51:00,
2013-05-02 12:01:00,68.4,42.5,30.39,ESE,111,5.0,8.0,39,0.00,,CLR,0.00,VWS V12.08,2013-05-02 16:01:00,
2013-05-02 12:11:00,69.6,44.9,30.39,NNE,22,1.0,8.0,41,0.00,,CLR,0.00,VWS V12.08,2013-05-02 16:11:00,
2013-05-02 12:21:00,70.4,44.3,30.39,ENE,66,2.0,7.0,39,0.00,,CLR,0.00,VWS V12.08,2013-05-02 16:21:00,
2013-05-02 12:31:00,70.8,44.6,30.38,ENE,62,0.0,7.0,39,0.00,,CLR,0.00,VWS V12.08,2013-05-02 16:31:00,
2013-05-02 12:41:00,70.4,42.9,30.38,ESE,106,2.0,7.0,37,0.00,,CLR,0.00,VWS V12.08,2013-05-02 16:41:00,
2013-05-02 12:51:00,70.9,43.4,30.38,East,88,2.0,4.0,37,0.00,,CLR,0.00,VWS V12.08,2013-05-02 16:51:00,
2013-05-02 13:01:00,70.3,46.8,30.38,ENE,61,2.0,6.0,43,0.00,,CLR,0.00,VWS V12.08,2013-05-02 17:01:00,
2013-05-02 13:11:00,71.1,41.3,30.38,NNW,342,1.0,6.0,34,0.00,,CLR,0.00,VWS V12.08,2013-05-02 17:11:00,
2013-05-02 13:21:00,72.7,45.0,30.37,ESE,108,2.0,12.0,37,0.00,,CLR,0.00,VWS V12.08,2013-05-02 17:21:00,
2013-05-02 13:31:00,73.0,39.8,30.36,ENE,78,0.0,7.0,30,0.00,,CLR,0.00,VWS V12.08,2013-05-02 17:31:00,
2013-05-02 13:41:00,71.8,42.7,30.36,ENE,75,1.0,10.0,35,0.00,,CLR,0.00,VWS V12.08,2013-05-02 17:41:00,
2013-05-02 13:51:00,72.7,43.5,30.35,NNE,29,0.0,6.0,35,0.00,,CLR,0.00,VWS V12.08,2013-05-02 17:51:00,
2013-05-02 14:01:00,72.7,41.2,30.35,ENE,74,3.0,7.0,32,0.00,,CLR,0.00,VWS V12.08,2013-05-02 18:01:00,
2013-05-02 14:11:00,73.0,41.4,30.35,ENE,70,3.0,5.0,32,0.00,,CLR,0.00,VWS V12.08,2013-05-02 18:11:00,
2013-05-02 14:21:00,73.7,44.4,30.34,ENE,73,3.0,9.0,35,0.00,,CLR,0.00,VWS V12.08,2013-05-02 18:21:00,
2013-05-02 14:31:00,73.9,42.2,30.34,East,96,1.0,5.0,32,0.00,,CLR,0.00,VWS V12.08,2013-05-02 18:31:00,
2013-05-02 14:41:00,74.0,39.8,30.34,SSE,159,1.0,7.0,29,0.00,,CLR,0.00,VWS V12.08,2013-05-02 18:41:00,
2013-05-02 14:51:00,75.3,41.8,30.33,ENE,69,4.0,10.0,30,0.00,,CLR,0.00,VWS V12.08,2013-05-02 18:51:00,
2013-05-02 15:01:00,75.4,43.5,30.33,ESE,115,2.0,9.0,32,0.00,,CLR,0.00,VWS V12.08,2013-05-02 19:01:00,
2013-05-02 15:11:00,75.1,40.7,30.33,NNW,346,0.0,4.0,29,0.00,,CLR,0.00,VWS V12.08,2013-05-02 19:11:00,
2013-05-02 15:21:00,75.6,42.0,30.32,ENE,75,0.0,7.0,30,0.00,,CLR,0.00,VWS V12.08,2013-05-02 19:21:00,
2013-05-02 15:31:00,76.5,40.1,30.32,NE,43,0.0,6.0,27,0.00,,CLR,0.00,VWS V12.08,2013-05-02 19:31:00,
2013-05-02 15:41:00,76.5,41.0,30.32,SSE,165,3.0,6.0,28,0.00,,CLR,0.00,VWS V12.08,2013-05-02 19:41:00,
2013-05-02 15:51:00,75.4,40.1,30.31,South,182,2.0,6.0,28,0.00,,CLR,0.00,VWS V12.08,2013-05-02 19:51:00,
2013-05-02 16:01:00,75.4,45.9,30.31,SSW,205,0.0,5.0,35,0.00,,CLR,0.00,VWS V12.08,2013-05-02 20:01:00,
2013-05-02 16:11:00,74.7,41.2,30.31,ESE,123,0.0,6.0,30,0.00,,CLR,0.00,VWS V12.08,2013-05-02 20:11:00,
2013-05-02 16:21:00,74.6,41.2,30.31,SE,133,2.0,7.0,30,0.00,,CLR,0.00,VWS V12.08,2013-05-02 20:21:00,
2013-05-02 16:31:00,74.7,39.5,30.30,SSE,165,0.0,6.0,28,0.00,,CLR,0.00,VWS V12.08,2013-05-02 20:31:00,
2013-05-02 16:41:00,75.3,40.0,30.30,SSE,165,2.0,2.0,28,0.00,,CLR,0.00,VWS V12.08,2013-05-02 20:41:00,
2013-05-02 16:51:00,75.6,42.9,30.30,NE,52,0.0,6.0,31,0.00,,CLR,0.00,VWS V12.08,2013-05-02 20:51:00,
2013-05-02 17:01:00,75.4,39.1,30.30,SSE,165,1.0,7.0,27,0.00,,CLR,0.00,VWS V12.08,2013-05-02 21:01:00,
2013-05-02 17:11:00,75.1,41.6,30.30,East,80,2.0,4.0,30,0.00,,CLR,0.00,VWS V12.08,2013-05-02 21:11:00,
2013-05-02 17:21:00,74.0,40.6,30.30,SE,131,0.0,9.0,30,0.00,,CLR,0.00,VWS V12.08,2013-05-02 21:21:00,
2013-05-02 17:31:00,73.5,38.4,30.29,SE,142,0.0,12.0,28,0.00,,CLR,0.00,VWS V12.08,2013-05-02 21:31:00,
2013-05-02 17:41:00,73.5,38.4,30.29,SSE,157,0.0,4.0,28,0.00,,CLR,0.00,VWS V12.08,2013-05-02 21:41:00,
2013-05-02 17:51:00,72.1,39.8,30.28,ESE,121,6.0,7.0,31,0.00,,CLR,0.00,VWS V12.08,2013-05-02 21:51:00,
2013-05-02 18:01:00,71.3,39.1,30.28,East,96,1.0,10.0,31,0.00,,CLR,0.00,VWS V12.08,2013-05-02 22:01:00,
2013-05-02 18:11:00,69.9,39.5,30.28,South,186,0.0,7.0,33,0.00,,CLR,0.00,VWS V12.08,2013-05-02 22:11:00,
2013-05-02 18:21:00,69.1,41.0,30.28,ENE,60,0.0,5.0,36,0.00,,CLR,0.00,VWS V12.08,2013-05-02 22:21:00,
2013-05-02 18:31:00,68.6,39.9,30.28,SE,140,0.0,7.0,35,0.00,,CLR,0.00,VWS V12.08,2013-05-02 22:31:00,
2013-05-02 18:41:00,68.1,37.9,30.28,South,180,2.0,5.0,33,0.00,,CLR,0.00,VWS V12.08,2013-05-02 22:41:00,
2013-05-02 18:51:00,67.6,38.3,30.28,South,180,2.0,2.0,34,0.00,,CLR,0.00,VWS V12.08,2013-05-02 22:51:00,
2013-05-02 19:01:00,67.1,38.6,30.28,South,180,2.0,2.0,35,0.00,,CLR,0.00,VWS V12.08,2013-05-02 23:01:00,
2013-05-02 19:11:00,66.4,39.4,30.28,South,180,2.0,2.0,37,0.00,,CLR,0.00,VWS V12.08,2013-05-02 23:11:00,
2013-05-02 19:21:00,65.8,41.5,30.28,South,180,2.0,2.0,41,0.00,,CLR,0.00,VWS V12.08,2013-05-02 23:21:00,
2013-05-02 19:31:00,64.8,39.9,30.27,South,180,2.0,2.0,40,0.00,,CLR,0.00,VWS V12.08,2013-05-02 23:31:00,
2013-05-02 19:41:00,63.5,41.2,30.27,South,180,2.0,2.0,44,0.00,,CLR,0.00,VWS V12.08,2013-05-02 23:41:00,
2013-05-02 19:51:00,62.7,41.1,30.27,South,180,2.0,2.0,45,0.00,,CLR,0.00,VWS V12.08,2013-05-02 23:51:00,
2013-05-02 20:01:00,61.6,42.3,30.27,South,180,2.0,2.0,49,0.00,,CLR,0.00,VWS V12.08,2013-05-03 00:01:00,
2013-05-02 20:11:00,60.7,40.9,30.27,South,180,2.0,2.0,48,0.00,,CLR,0.00,VWS V12.08,2013-05-03 00:11:00,
2013-05-02 20:21:00,59.8,41.1,30.27,South,180,2.0,2.0,50,0.00,,CLR,0.00,VWS V12.08,2013-05-03 00:21:00,
2013-05-02 20:31:00,59.2,41.1,30.27,South,180,2.0,2.0,51,0.00,,CLR,0.00,VWS V12.08,2013-05-03 00:31:00,
2013-05-02 20:41:00,58.6,41.5,30.27,South,180,2.0,2.0,53,0.00,,CLR,0.00,VWS V12.08,2013-05-03 00:41:00,
2013-05-02 20:51:00,58.1,41.1,30.28,South,180,2.0,2.0,53,0.00,,CLR,0.00,VWS V12.08,2013-05-03 00:51:00,
2013-05-02 21:01:00,57.5,41.9,30.27,South,180,2.0,2.0,56,0.00,,CLR,0.00,VWS V12.08,2013-05-03 01:01:00,
2013-05-02 21:11:00,57.0,41.9,30.27,South,180,2.0,2.0,57,0.00,,CLR,0.00,VWS V12.08,2013-05-03 01:11:00,
2013-05-02 21:21:00,56.6,43.3,30.27,South,180,2.0,2.0,61,0.00,,CLR,0.00,VWS V12.08,2013-05-03 01:21:00,
2013-05-02 21:31:00,56.2,41.6,30.27,South,180,2.0,2.0,58,0.00,,CLR,0.00,VWS V12.08,2013-05-03 01:31:00,
2013-05-02 21:41:00,55.7,41.6,30.27,South,180,2.0,2.0,59,0.00,,CLR,0.00,VWS V12.08,2013-05-03 01:41:00,
2013-05-02 21:51:00,55.4,42.2,30.27,South,180,2.0,2.0,61,0.00,,CLR,0.00,VWS V12.08,2013-05-03 01:51:00,
2013-05-02 22:01:00,55.1,41.5,30.27,South,180,2.0,2.0,60,0.00,,,0.00,VWS V12.08,2013-05-03 02:01:00,
2013-05-02 22:11:00,54.8,41.6,30.27,South,180,2.0,2.0,61,0.00,,,0.00,VWS V12.08,2013-05-03 02:11:00,
2013-05-02 22:21:00,54.4,41.7,30.27,South,180,2.0,2.0,62,0.00,,,0.00,VWS V12.08,2013-05-03 02:21:00,
2013-05-02 22:31:00,53.8,41.1,30.27,South,180,2.0,2.0,62,0.00,,,0.00,VWS V12.08,2013-05-03 02:31:00,
2013-05-02 22:41:00,53.5,41.2,30.27,South,180,2.0,2.0,63,0.00,,,0.00,VWS V12.08,2013-05-03 02:41:00,
2013-05-02 22:51:00,53.1,42.5,30.27,South,180,2.0,2.0,67,0.00,,,0.00,VWS V12.08,2013-05-03 02:51:00,
2013-05-02 23:01:00,52.6,41.6,30.27,South,180,2.0,2.0,66,0.00,,CLR,0.00,VWS V12.08,2013-05-03 03:01:00,
2013-05-02 23:11:00,52.3,40.9,30.27,South,180,2.0,2.0,65,0.00,,CLR,0.00,VWS V12.08,2013-05-03 03:11:00,
2013-05-02 23:21:00,52.2,41.2,30.27,South,180,2.0,2.0,66,0.00,,CLR,0.00,VWS V12.08,2013-05-03 03:21:00,
2013-05-02 23:31:00,52.3,41.7,30.27,South,180,2.0,2.0,67,0.00,,CLR,0.00,VWS V12.08,2013-05-03 03:31:00,
2013-05-02 23:41:00,52.3,40.9,30.27,South,180,2.0,2.0,65,0.00,,CLR,0.00,VWS V12.08,2013-05-03 03:41:00,
2013-05-02 23:51:00,52.3,42.1,30.27,South,180,2.0,2.0,68,0.00,,CLR,0.00,VWS V12.08,2013-05-03 03:51:00,